Weather History for KNUW - January, 2014

Change the Weather History Date:

Wednesday, January 29, 2014

  Actual Average Record
Temperature  
Mean Temperature 44 °F -  
Max Temperature 48 °F 46 °F 54 °F (1998)
Min Temperature 41 °F 35 °F 28 °F (2002)
Degree Days  
Heating Degree Days 20    
Moisture  
Dew Point 42 °F    
Average Humidity 85    
Maximum Humidity 90    
Minimum Humidity 77    
Precipitation  
Precipitation 0.49 in - - ()
Sea Level Pressure  
Sea Level Pressure 29.75 in    
Wind  
Wind Speed 7 mph (ENE)    
Max Wind Speed 14 mph    
Max Gust Speed -    
Visibility 5 miles    
Events Rain    
Averages and records for this station are not official NWS values.
T = Trace of Precipitation, MM = Missing Value Source: NWS Daily Summary

Daily Weather History Graph

Daily Weather History Graph

Search for Another Location

Airport or City:

Trip Planner

Search our weather history database for the weather conditions in past years. The results will help you decide how hot, cold, wet, or windy it might be!

Date:

Astronomy

Jan. 29, 2014 Rise Set
Actual Time 7:42 AM PST 5:05 PM PST
Civil Twilight 7:09 AM PST 5:39 PM PST
Nautical Twilight 6:31 AM PST 6:16 PM PST
Astronomical Twilight 5:54 AM PST 6:53 PM PST
Moon 6:24 AM PST (1/29) 4:12 PM PST (1/29)
Length of Visible Light 10h 29m
Length of Day
9h 22m
Waning Crescent, 2% of the Moon is Illuminated
Jan 29
Waning Crescent
Jan 30
New
Feb 6
First Quarter
Feb 14
Full
Feb 22
Last Quarter

Hourly Weather History & Observations

Time (PST) Temp. Windchill Dew Point Humidity Pressure Visibility Wind Dir Wind Speed Gust Speed Precip Events Conditions
12:56 AM 46.0 °F 44.8 °F 43.0 °F 89% 29.90 in 4.0 mi SE 3.5 mph - 0.09 in Rain Rain
1:56 AM 46.0 °F - 43.0 °F 89% 29.88 in 2.0 mi Calm Calm - 0.13 in Rain Rain
2:56 AM 46.0 °F 44.8 °F 42.1 °F 86% 29.84 in 2.0 mi SSE 3.5 mph - 0.08 in Rain Light Rain
3:56 AM 46.0 °F 42.5 °F 42.1 °F 86% 29.82 in 2.5 mi SE 6.9 mph - 0.02 in Rain Light Rain
4:56 AM 46.9 °F - 42.1 °F 83% 29.81 in 2.0 mi ESE 5.8 mph - 0.01 in Rain Light Rain
5:56 AM 46.0 °F 41.4 °F 42.1 °F 86% 29.79 in 2.5 mi East 9.2 mph - 0.02 in Rain Light Rain
6:24 AM 46.9 °F - 42.1 °F 83% 29.77 in 2.0 mi East 6.9 mph - 0.00 in Rain Light Rain
6:56 AM 46.0 °F 41.4 °F 42.1 °F 86% 29.76 in 2.5 mi East 9.2 mph - 0.00 in Rain Light Rain
7:28 AM 46.9 °F - 43.0 °F 86% 29.75 in 2.5 mi East 8.1 mph - 0.00 in Rain Light Rain
7:56 AM 46.0 °F 41.0 °F 43.0 °F 89% 29.75 in 2.5 mi East 10.4 mph - 0.00 in Rain Light Rain
8:28 AM 46.9 °F - 43.0 °F 86% 29.73 in 2.5 mi East 8.1 mph - 0.00 in   Overcast
8:56 AM 46.9 °F - 43.0 °F 86% 29.73 in 2.5 mi ENE 6.9 mph - 0.00 in   Overcast
9:12 AM 48.0 °F - 43.0 °F 83% 29.71 in 2.5 mi East 6.9 mph - 0.00 in Rain Light Rain
9:42 AM 46.9 °F - 43.0 °F 86% 29.70 in 2.0 mi East 9.2 mph - 0.00 in Rain Light Rain
9:56 AM 46.9 °F - 43.0 °F 86% 29.71 in 2.0 mi East 8.1 mph - 0.00 in Rain Light Rain
10:17 AM 48.0 °F - 44.1 °F 86% 29.70 in 2.5 mi East 8.1 mph - 0.02 in Rain Light Rain
10:37 AM 48.0 °F - 44.1 °F 86% 29.69 in 2.5 mi East 6.9 mph - 0.04 in Rain Light Rain
10:56 AM 48.9 °F - 45.0 °F 86% 29.70 in 2.0 mi ENE 4.6 mph - 0.05 in Rain Light Rain
11:03 AM 48.9 °F - 45.0 °F 86% 29.68 in 2.0 mi ENE 4.6 mph - 0.00 in Rain Light Rain
11:15 AM 48.9 °F - 45.0 °F 86% 29.68 in 2.0 mi ENE 5.8 mph - 0.00 in   Overcast
11:43 AM 48.9 °F - 45.0 °F 86% 29.67 in 1.5 mi NNW 3.5 mph - 0.00 in Rain Light Rain
11:56 AM 48.9 °F - 45.0 °F 86% 29.68 in 1.5 mi NNW 8.1 mph - 0.01 in Rain Light Rain
12:56 PM 46.9 °F - 44.1 °F 90% 29.67 in 1.5 mi North 12.7 mph - 0.04 in Rain Light Rain
1:32 PM 48.0 °F - 44.1 °F 86% 29.66 in 1.5 mi North 11.5 mph - 0.01 in Rain Light Rain
1:56 PM 48.0 °F - 44.1 °F 86% 29.68 in 1.5 mi North 13.8 mph - 0.02 in Rain Light Rain
2:56 PM 48.0 °F - 43.0 °F 83% 29.69 in 7.0 mi North 11.5 mph - 0.02 in Rain Light Rain
3:09 PM 48.0 °F - 43.0 °F 83% 29.69 in 10.0 mi NNW 13.8 mph - 0.00 in Rain Light Rain
3:56 PM 48.0 °F - 42.1 °F 80% 29.71 in 10.0 mi NNW 13.8 mph - 0.00 in   Overcast
4:56 PM 48.0 °F - 41.0 °F 77% 29.74 in 10.0 mi NNW 12.7 mph - N/A   Overcast
5:14 PM 46.9 °F - 41.0 °F 80% 29.73 in 10.0 mi NNW 6.9 mph - N/A   Overcast
5:49 PM 46.9 °F - 41.0 °F 80% 29.74 in 10.0 mi NW 10.4 mph - N/A   Overcast
5:56 PM 48.0 °F - 41.0 °F 77% 29.76 in 10.0 mi NW 10.4 mph - N/A   Mostly Cloudy
6:56 PM 46.0 °F - 41.0 °F 83% 29.77 in 10.0 mi Calm Calm - N/A   Mostly Cloudy
7:24 PM 45.0 °F 43.5 °F 39.9 °F 82% 29.76 in 10.0 mi ENE 3.5 mph - N/A   Mostly Cloudy
7:56 PM 42.1 °F 38.4 °F 37.9 °F 85% 29.78 in 9.0 mi ESE 5.8 mph - N/A   Mostly Cloudy
8:38 PM 41.0 °F 35.8 °F 37.9 °F 89% 29.78 in 10.0 mi SE 8.1 mph - N/A   Mostly Cloudy
8:56 PM 42.1 °F 37.7 °F 39.0 °F 89% 29.79 in 10.0 mi SSE 6.9 mph - N/A   Mostly Cloudy
9:56 PM 45.0 °F 40.6 °F 41.0 °F 86% 29.81 in 10.0 mi SE 8.1 mph - N/A   Overcast
10:56 PM 46.0 °F 43.9 °F 41.0 °F 83% 29.82 in 10.0 mi SSE 4.6 mph - N/A   Overcast
11:56 PM 46.0 °F 43.1 °F 42.1 °F 86% 29.82 in 10.0 mi ESE 5.8 mph - N/A   Overcast